This demonstration page uses our WeatherBlox Daily Observations layout. Learn more.

Left ArrowRight Arrow

53.62937, 11.41316

Hourly Observations for April 2, 2021

Temp ( °F °C ) Dew Point ( °F °C ) Humidity (%) Winds ( mph kmh ) Pressure ( in mb ) Visibility ( mi km ) Precip ( " mm )
6:20 am 06:20 Mostly Cloudy with Fog 36 2 36 2 100 100 WSW 5 7 30.18 1022 0 0 N/A
6:50 am 06:50 Mostly Cloudy with Fog 36 2 36 2 100 100 W 6 9 30.18 1022 0 0 N/A
7:20 am 07:20 Cloudy with Mist and Fog 36 2 36 2 100 100 W 8 13 30.18 1022 1 2 N/A
7:50 am 07:50 Mostly Cloudy 37 3 37 3 100 100 W 8 13 30.18 1022 4 6 N/A
8:20 am 08:20 Mostly Cloudy 37 3 36 2 93 93 WSW 8 13 30.18 1022 30 48 N/A
8:50 am 08:50 Mostly Cloudy 37 3 37 3 100 100 WSW 7 11 30.18 1022 30 48 N/A
9:20 am 09:20 Mostly Cloudy 39 4 36 2 87 87 WSW 8 13 30.18 1022 30 48 N/A
9:50 am 09:50 Mostly Cloudy 39 4 34 1 81 81 WSW 10 17 30.18 1022 30 48 N/A
10:20 am 10:20 Mostly Cloudy 41 5 36 2 81 81 WSW 10 17 30.15 1021 30 48 N/A
10:50 am 10:50 Mostly Cloudy 43 6 36 2 76 76 WSW 10 17 30.15 1021 30 48 N/A
11:20 am 11:20 Mostly Cloudy 43 6 36 2 76 76 WSW 9 15 30.15 1021 30 48 N/A
11:50 am 11:50 Mostly Cloudy 45 7 36 2 71 71 WSW 12 19 30.15 1021 30 48 N/A
12:20 pm 12:20 Mostly Cloudy 45 7 34 1 66 66 WSW 10 17 30.15 1021 30 48 N/A
12:50 pm 12:50 Mostly Cloudy 45 7 36 2 71 71 W 9 15 30.15 1021 30 48 N/A
1:20 pm 13:20 Mostly Cloudy 45 7 36 2 71 71 WSW 8 13 30.12 1020 30 48 N/A
1:50 pm 13:50 Mostly Cloudy 46 8 36 2 66 66 WSW 9 15 30.12 1020 30 48 N/A
2:20 pm 14:20 Mostly Cloudy 45 7 36 2 71 71 WSW 12 19 30.12 1020 30 48 N/A
2:50 pm 14:50 Mostly Cloudy 46 8 36 2 66 66 WSW 9 15 30.09 1019 30 48 N/A
3:20 pm 15:20 Mostly Cloudy 46 8 36 2 66 66 WSW 8 13 30.09 1019 30 48 N/A
3:50 pm 15:50 Mostly Cloudy 46 8 37 3 71 71 WSW 9 15 30.09 1019 30 48 N/A
4:20 pm 16:20 Mostly Cloudy 46 8 37 3 71 71 WSW 10 17 30.09 1019 30 48 N/A
4:50 pm 16:50 Mostly Cloudy 48 9 37 3 66 66 WSW 9 15 30.06 1018 30 48 N/A
5:20 pm 17:20 Mostly Cloudy 48 9 37 3 66 66 WSW 12 19 30.06 1018 30 48 N/A
5:50 pm 17:50 Mostly Cloudy 48 9 37 3 66 66 WSW 8 13 30.06 1018 30 48 N/A
6:20 pm 18:20 Mostly Cloudy 48 9 37 3 66 66 WSW 8 13 30.06 1018 30 48 N/A
6:50 pm 18:50 Partly Cloudy 46 8 37 3 71 71 WSW 8 13 30.06 1018 30 48 N/A
7:20 pm 19:20 Partly Cloudy 46 8 37 3 71 71 W 7 11 30.06 1018 30 48 N/A
7:50 pm 19:50 Partly Cloudy 45 7 36 2 71 71 W 5 7 30.06 1018 30 48 N/A
8:20 pm 20:20 Mostly Clear 43 6 37 3 81 81 WSW 5 7 30.06 1018 7 11 N/A
8:50 pm 20:50 Partly Cloudy 45 7 37 3 76 76 WSW 5 7 30.09 1019 30 48 N/A
9:20 pm 21:20 Mostly Cloudy 45 7 37 3 76 76 WSW 5 7 30.09 1019 30 48 N/A
9:50 pm 21:50 Mostly Cloudy 43 6 37 3 81 81 W 5 7 30.09 1019 30 48 N/A

Powered by AerisWeather